Location: Staunton
(38.1490°N, 79.0720°W)
Time: 01:33:11
(UTC-04:00)

ISS - Pass Details

Date: 09 May 2021
Orbit: 417 x 422 km, 51.6° (Epoch: 18 May)

Event Time Altitude Azimuth Distance (km) Brightness Sun altitude
Rises 05:24:31 0° 319° (NW) 2,370 0.0 -9.0°
Reaches altitude 10° 05:27:16 10° 343° (NNW) 1,504 -0.8 -8.5°
Maximum altitude 05:29:22 15° 22° (NNE) 1,220 -0.6 -8.1°
Drops below altitude 10° 05:31:28 10° 60° (ENE) 1,503 0.8 -7.8°
Sets 05:34:13 0° 84° (E) 2,366 1.5 -7.3°
